Weather History for Augusta Bush, GA

Change the Weather History Date:

Tuesday, November 20, 2012

  Actual Average Record
Temperature  
Mean Temperature 54 °F 54 °F  
Max Temperature 67 °F 68 °F 82 °F (1991)
Min Temperature 40 °F 40 °F 20 °F (1951)
Degree Days  
Heating Degree Days 11 11  
Month to date heating degree days 242 179  
Since 1 July heating degree days 327 293  
Cooling Degree Days 0 0  
Month to date cooling degree days 0 15  
Year to date cooling degree days 2163 2085  
Growing Degree Days 2 (Base 50)    
Moisture  
Dew Point 44 °F    
Average Humidity 74    
Maximum Humidity 100    
Minimum Humidity 48    
Precipitation  
Precipitation 0.00 in 0.09 in 1.58 in (1986)
Month to date precipitation 0.90 1.80  
Year to date precipitation 31.21 39.16  
Sea Level Pressure  
Sea Level Pressure 30.12 in    
Wind  
Wind Speed 3 mph (NNW)    
Max Wind Speed 12 mph    
Max Gust Speed 14 mph    
Visibility 8 miles    
Events      
T = Trace of Precipitation, MM = Missing Value Source: NWS Daily Summary

Daily Weather History Graph

Daily Weather History Graph

Search for Another Location

Airport:

Trip Planner

Search our weather history database for the weather conditions in past years. The results will help you decide how hot, cold, wet, or windy it might be!

Date:

Astronomy

Nov. 20, 2012 Rise Set
Actual Time 7:04 AM EST 5:22 PM EST
Civil Twilight 6:37 AM EST 5:49 PM EST
Nautical Twilight 6:07 AM EST 6:19 PM EST
Astronomical Twilight 5:37 AM EST 6:49 PM EST
Moon 12:48 PM EST (11/20) No Moon Set
Length of Visible Light 11h 11m
Length of Day
10h 18m
Waxing Crescent, 51% of the Moon is Illuminated
Nov 20
Waxing Crescent
Nov 28
Full
Dec 6
Last Quarter
Dec 13
New
Dec 20
First Quarter

Hourly Weather History & Observations

Time (EST) Temp. Windchill Dew Point Humidity Pressure Visibility Wind Dir Wind Speed Gust Speed Precip Events Conditions
12:53 AM 46.9 °F - 45.0 °F 93% 30.16 in 10.0 mi NW 3.5 mph - N/A   Clear
1:53 AM 46.0 °F 41.9 °F 44.1 °F 93% 30.16 in 10.0 mi NNW 8.1 mph - N/A   Clear
2:53 AM 46.4 °F - 44.6 °F 93% 30.15 in 10.0 mi Calm Calm - N/A   Clear
3:53 AM 43.0 °F - 42.1 °F 97% 30.14 in 8.0 mi Calm Calm - N/A   Clear
4:53 AM 42.1 °F - 41.0 °F 96% 30.14 in 10.0 mi Calm Calm - N/A   Clear
5:53 AM 42.1 °F - 41.0 °F 96% 30.15 in 4.0 mi Calm Calm - N/A   Clear
6:53 AM 42.1 °F - 41.0 °F 96% 30.16 in 10.0 mi Calm Calm - N/A   Clear
7:53 AM 48.0 °F - 45.0 °F 89% 30.18 in 10.0 mi NW 4.6 mph - N/A   Clear
8:53 AM 51.1 °F - 45.0 °F 80% 30.18 in 10.0 mi North 3.5 mph - N/A   Clear
9:53 AM 55.9 °F - 46.0 °F 69% 30.18 in 10.0 mi North 3.5 mph - N/A   Partly Cloudy
10:53 AM 59.0 °F - 46.0 °F 62% 30.18 in 10.0 mi NNW 6.9 mph - N/A   Overcast
11:53 AM 61.0 °F - 46.0 °F 58% 30.15 in 10.0 mi North 5.8 mph - N/A   Overcast
12:53 PM 63.0 °F - 46.9 °F 56% 30.11 in 10.0 mi North 5.8 mph - N/A   Overcast
1:53 PM 64.9 °F - 46.9 °F 52% 30.09 in 10.0 mi NNW 5.8 mph - N/A   Clear
2:53 PM 66.0 °F - 46.9 °F 50% 30.06 in 10.0 mi North 8.1 mph - N/A   Clear
3:53 PM 64.9 °F - 46.9 °F 52% 30.06 in 10.0 mi NNW 5.8 mph - N/A   Clear
4:53 PM 63.0 °F - 46.9 °F 56% 30.06 in 10.0 mi NW 4.6 mph - N/A   Clear
5:53 PM 54.0 °F - 48.0 °F 80% 30.07 in 10.0 mi Calm Calm - N/A   Clear
6:53 PM 50.0 °F - 48.0 °F 93% 30.09 in 10.0 mi Calm Calm - N/A   Clear
7:53 PM 48.0 °F - 46.0 °F 93% 30.09 in 10.0 mi Calm Calm - N/A   Clear
8:53 PM 45.0 °F - 44.1 °F 97% 30.09 in 10.0 mi Calm Calm - N/A   Clear
9:53 PM 43.0 °F - 42.1 °F 97% 30.10 in 10.0 mi Calm Calm - N/A   Clear
10:09 PM 44.6 °F - 42.8 °F 93% 30.10 in 1.8 mi Calm Calm - N/A   Clear
10:18 PM 44.6 °F - 42.8 °F 93% 30.10 in 0.8 mi Calm Calm - N/A   Clear
10:23 PM 42.8 °F - 42.8 °F 100% 30.10 in 2.0 mi Calm Calm - N/A   Clear
10:31 PM 42.8 °F - 42.8 °F 100% 30.09 in 6.0 mi Calm Calm - N/A   Clear
10:37 PM 42.8 °F - 41.0 °F 93% 30.09 in 2.0 mi Calm Calm - N/A   Partly Cloudy
10:44 PM 42.8 °F - 41.0 °F 93% 30.09 in 1.8 mi Calm Calm - N/A   Scattered Clouds
10:46 PM 42.8 °F - 41.0 °F 93% 30.09 in 3.0 mi Calm Calm - N/A   Scattered Clouds
10:53 PM 43.0 °F - 42.1 °F 97% 30.09 in 1.2 mi Calm Calm - N/A   Partly Cloudy
10:55 PM 42.8 °F - 42.8 °F 100% 30.09 in 0.8 mi Calm Calm - N/A   Mist
11:06 PM 42.8 °F - 41.0 °F 93% 30.10 in 1.5 mi Calm Calm - N/A   Partly Cloudy
11:13 PM 42.8 °F 41.1 °F 41.0 °F 93% 30.10 in 10.0 mi West 3.5 mph - N/A   Clear
11:53 PM 41.0 °F - 39.9 °F 96% 30.10 in 3.0 mi Calm Calm - N/A   Clear